Location: Brookfield Center
(41.2406°N, 80.5579°W)
Time: 19:46:36
(UTC+00:00)

CSL-04 Rocket - Pass Details

Date: 18 January 2020
Orbit: 806 x 860 km, 99.0° (Epoch: 16 February)

Event Time Altitude Azimuth Distance (km) Brightness Sun altitude
Rises 00:06:12 0° 168° (SSE) 3,367 6.8 -19.7°
Reaches altitude 10° 00:08:32 10° 170° (S) 2,445 6.1 -20.1°
Maximum altitude 00:13:58 77° 256° (WSW) 873 3.8 -21.1°
Drops below altitude 10° 00:19:31 10° 343° (NNW) 2,492 6.2 -22.1°
Sets 00:21:55 0° 345° (NNW) 3,438 7.0 -22.6°
